81P/Wild 2 (2016)

Japanese version
Home page
Updated on August 10, 2016

---------------------------------------------------------------------

* Profile

* Pictures

* Orbital Elements

Epoch 2016 July 31.0 TT = JDT 2457600.5
T 2016 July 20.30994 TT                                 MPCW
q   1.5921668            (2000.0)            P               Q
n   0.15386408     Peri.   41.69741     -0.99854201     -0.03715356
a   3.4491432      Node   136.12596     +0.02059882     -0.93281244
e   0.5383877      Incl.    3.23899     +0.04989527     -0.35844185
P   6.41
From 4240 observations 2002 Sept. 5-2016 Feb. 18, mean residual 0".6.
     Nongravitational parameters A1 = -0.04, A2 = -0.0133.

* Finding Charts

* Magnitudes Graph

        m1 = 6.3 + 5 log d + 18.0 log r(t + 20)  [  ,95]  (             - 2016 Oct. 23)
        m1 = 8.2 + 5 log d + 12.5 log r          [95,  ]  (2016 Oct. 23 -             )

---------------------------------------------------------------------

The orbital elements are published on M.P.E.C. 2016-D32.
The charts are made with StellaNavigator Ver.8 (AstroArts).
The magnitudes graphs are made with Comet for Windows.

---------------------------------------------------------------------

Copyright(C) Seiichi Yoshida (comet@aerith.net). All rights reserved.